Temperature
21 21 21 21 21 22 20 20 19 18 17 15 15 14 12 11 11 8 6 6 7 7 7 8 7 7 7 7 7 7 7 7 7 7 7 6 6 6 6 6 6 6 6 6 6 6 7 7 7
22 21 21 22 22 21 19 19 18 17 15 15 15 15 12 10 8 7 6 6 6 7 8 8 8 7 7 7 7 7 7 7 6 6 6 5 5 5 5 5 5 5 5 5 5 5 5 6 6
22 22 23 23 21 21 19 18 16 15 15 15 13 12 11 10 8 6 6 6 6 7 7 8 8 8 7 7 7 7 6 6 5 5 5 5 4 4 4 4 4 4 4 4 4 4 4 5 5
22 22 24 22 20 20 19 17 16 15 15 14 13 10 9 8 7 6 6 6 6 7 7 8 8 8 7 7 7 6 6 5 5 5 5 4 4 4 3 4 4 4 4 3 3 3 4 4 4
22 23 23 20 19 19 18 17 16 16 15 15 13 10 7 7 6 6 6 6 6 7 7 7 7 7 7 6 6 6 5 5 4 4 4 4 4 3 3 3 3 3 3 3 3 3 3 3 3
23 25 23 20 18 18 18 17 18 16 15 14 13 10 7 6 6 6 6 6 6 7 7 7 6 6 6 6 6 5 5 5 4 4 4 4 3 3 3 3 3 3 3 3 2 2 2 2 2
24 22 22 20 17 18 17 17 17 16 15 14 14 11 7 6 6 5 5 6 6 6 6 6 6 6 6 5 5 5 4 4 4 3 3 3 3 3 3 3 3 2 2 2 2 2 1 1 1
23 23 22 21 19 18 17 16 17 16 15 13 13 12 8 7 6 5 5 5 6 6 6 6 6 6 6 5 4 4 4 3 3 3 3 3 3 3 3 2 2 1 1 1 1 1 1 1 1
22 22 21 21 20 17 16 15 14 14 12 12 12 11 10 8 6 5 5 5 5 5 5 6 6 6 5 5 4 4 3 3 3 3 2 2 2 2 2 1 1 0 0 0 0 0 -0 0 0
22 20 18 18 19 17 16 15 13 13 12 11 10 9 8 7 6 6 6 5 5 5 5 5 5 5 5 5 4 3 3 2 2 2 1 1 1 1 1 1 0 -0 -0 -1 -1 -1 -1 -1 -1
19 18 17 17 18 17 16 15 13 14 13 12 10 8 7 7 6 6 6 5 4 4 5 5 5 5 5 4 3 3 2 1 1 1 1 1 1 1 0 -0 -0 -1 -1 -2 -2 -2 -2 -2 -2
18 17 17 15 16 16 16 15 14 14 14 14 11 9 7 6 6 6 6 5 4 4 4 4 4 4 4 4 3 1 1 1 0 0 -0 -0 -0 -1 -1 -1 -2 -2 -3 -3 -3 -3 -3 -3 -3
17 15 15 14 15 15 15 14 14 14 13 12 11 9 7 7 6 6 5 5 4 4 3 4 4 4 4 3 2 1 0 0 -0 -0 -1 -1 -1 -2 -2 -2 -3 -4 -4 -4 -4 -5 -5 -5 -5
17 15 14 14 14 14 14 14 13 13 12 11 9 8 7 7 6 6 5 4 4 3 3 3 4 3 3 2 1 1 0 -1 -1 -1 -1 -2 -2 -3 -3 -3 -4 -5 -5 -5 -6 -6 -6 -6 -6
16 15 15 14 14 14 14 14 13 13 11 10 8 8 7 7 6 6 5 4 4 3 3 3 3 3 2 2 1 0 -0 -1 -1 -1 -2 -3 -3 -3 -4 -4 -5 -6 -6 -6 -6 -7 -7 -7 -7
18 17 16 15 15 14 13 14 15 13 11 9 8 8 7 7 6 6 5 4 3 3 3 3 3 3 2 1 1 0 -1 -1 -1 -2 -2 -3 -3 -4 -5 -5 -6 -6 -7 -7 -7 -7 -8 -8 -8
18 19 20 15 16 14 12 14 13 11 11 10 9 8 8 7 6 6 5 4 3 3 2 2 3 2 2 1 1 -0 -1 -1 -2 -2 -3 -3 -4 -5 -5 -6 -6 -7 -7 -8 -8 -8 -9 -9 -9
20 20 21 19 15 15 13 14 13 11 11 10 10 9 8 8 7 6 5 4 3 2 2 2 2 2 2 1 1 0 -0 -1 -2 -2 -3 -4 -5 -5 -6 -6 -7 -8 -8 -8 -9 -9 -9 -9 -9
19 20 19 19 16 15 15 15 15 11 11 11 11 10 9 9 8 6 5 4 3 2 2 1 2 2 1 1 1 0 -0 -1 -2 -3 -4 -4 -5 -6 -6 -7 -7 -8 -8 -9 -9 -9 -9 -9 -10
19 19 19 18 16 15 15 15 16 13 11 11 11 11 10 10 8 7 5 4 3 2 2 1 1 1 1 1 0 -0 -1 -2 -3 -4 -4 -5 -6 -6 -7 -7 -8 -8 -9 -9 -9 -10 -10 -10 -10
19 19 18 17 18 16 14 15 16 14 12 11 11 11 11 10 9 8 6 4 3 2 2 1 1 1 1 0 -0 -1 -2 -2 -3 -4 -4 -5 -6 -7 -7 -8 -8 -9 -9 -9 -10 -10 -10 -10 -10
18 17 17 16 15 16 16 15 14 13 12 12 11 11 11 11 10 9 6 4 3 2 2 1 1 1 1 0 -0 -1 -2 -3 -3 -4 -5 -6 -6 -7 -8 -8 -9 -9 -9 -10 -10 -10 -10 -10 -10
18 16 16 15 15 15 16 15 16 14 13 12 12 12 11 11 10 9 7 5 3 2 2 1 1 1 0 -0 -1 -2 -2 -3 -4 -5 -5 -6 -6 -7 -8 -8 -9 -9 -9 -10 -10 -10 -10 -10 -10
16 16 15 15 15 15 18 17 17 15 16 15 14 13 12 11 10 9 7 5 3 2 2 1 1 0 0 -0 -1 -2 -3 -3 -4 -5 -5 -6 -7 -7 -8 -9 -9 -9 -10 -10 -10 -10 -10 -10 -10
16 16 16 16 14 17 17 17 17 16 16 16 15 14 13 11 10 8 7 5 3 2 2 1 1 0 -0 -1 -1 -2 -3 -4 -4 -5 -6 -6 -7 -8 -8 -9 -9 -9 -10 -10 -10 -10 -10 -10 -10
17 17 16 16 17 17 16 16 17 15 15 15 14 13 12 11 9 8 6 5 3 2 2 1 1 0 -0 -1 -2 -2 -3 -4 -4 -5 -6 -7 -7 -8 -8 -9 -9 -9 -10 -10 -10 -10 -10 -10 -10
17 17 16 15 16 16 17 18 15 14 12 12 12 11 11 10 9 7 6 4 3 2 2 1 1 0 -0 -1 -2 -2 -3 -4 -4 -5 -6 -7 -7 -8 -8 -9 -9 -9 -10 -10 -10 -10 -10 -10 -10
15 15 15 15 15 15 17 19 17 13 13 12 12 12 11 10 8 7 5 4 3 2 1 1 0 -0 -1 -1 -2 -2 -3 -4 -5 -5 -6 -7 -7 -8 -8 -9 -9 -10 -10 -10 -10 -10 -10 -10 -10
14 15 15 15 15 14 14 16 19 17 17 15 13 14 12 11 9 7 5 3 2 1 1 1 0 -0 -1 -1 -2 -2 -3 -4 -4 -5 -6 -7 -7 -8 -8 -9 -9 -10 -10 -10 -10 -10 -10 -10 -10
16 16 16 14 15 15 13 15 18 17 17 16 15 14 13 11 9 7 5 3 2 1 1 1 0 -0 -1 -1 -2 -2 -3 -4 -4 -5 -6 -7 -7 -8 -8 -9 -9 -9 -10 -10 -10 -10 -10 -10 -10
Wind_Speed
7 10 7 3 3 3 7 7 9 9 6 7 9 9 9 8 7 11 5 7 9 13 16 17 19 20 21 21 22 23 24 24 25 25 26 26 26 26 26 27 27 27 27 27 28 28 28 28 29
8 7 5 4 3 2 6 7 11 9 8 7 7 10 9 8 10 9 6 5 11 13 15 16 18 19 20 21 21 22 23 24 24 25 25 25 25 26 26 26 26 27 27 27 27 27 27 28 28
8 8 4 3 5 5 8 11 13 11 8 6 6 8 6 7 9 6 5 6 12 14 14 15 17 18 19 20 21 22 22 23 23 24 24 25 25 25 25 25 26 26 26 27 27 27 27 27 28
5 4 3 5 9 8 10 14 13 10 6 7 10 8 5 6 5 8 7 9 12 13 13 14 16 17 18 19 20 20 21 22 22 23 24 24 24 24 24 25 25 26 26 27 27 27 27 27 27
4 4 2 6 7 9 12 13 11 10 7 6 9 8 7 8 11 10 8 10 10 10 10 11 14 15 16 17 18 19 20 20 21 22 23 24 23 23 24 24 25 26 26 27 27 27 27 27 27
4 4 2 7 8 9 8 8 6 11 8 6 8 9 7 9 9 9 9 10 11 10 10 11 12 13 13 14 16 17 18 19 20 21 23 23 23 23 23 24 25 26 26 27 27 27 27 28 27
4 4 5 9 8 7 8 5 5 8 8 6 7 8 9 10 9 8 8 10 10 10 10 11 12 13 13 13 14 16 16 18 19 20 22 23 23 23 23 24 25 26 26 27 27 27 28 28 27
4 1 4 7 9 7 9 4 4 5 7 4 3 6 9 13 11 8 7 7 8 9 10 11 12 12 13 13 13 15 15 17 18 19 21 22 22 22 22 23 25 26 26 27 27 28 29 28 27
4 2 4 4 6 9 10 5 4 6 8 5 5 7 14 18 12 9 7 7 6 8 8 10 11 12 13 12 13 14 14 16 17 17 20 20 20 20 20 22 24 25 26 26 27 28 28 27 26
6 4 6 6 6 9 11 8 8 6 8 6 8 12 17 14 11 9 8 7 7 7 6 9 9 10 12 12 12 13 12 13 15 16 18 18 19 19 19 22 23 25 25 25 26 28 26 25 23
6 6 6 6 7 10 9 9 9 8 7 9 13 16 15 13 10 9 7 8 7 7 5 6 7 9 10 11 11 11 11 12 13 14 16 17 17 18 19 20 20 22 22 21 23 23 22 22 23
6 7 7 5 5 8 8 8 8 8 2 5 17 19 15 12 11 9 8 8 8 7 5 5 7 7 8 9 10 10 11 11 12 13 15 16 15 15 17 17 19 19 19 19 20 20 22 23 23
6 5 7 6 3 5 6 6 5 6 7 9 16 17 15 12 10 8 8 8 7 6 5 4 6 6 7 8 9 10 10 10 12 12 13 15 14 14 16 17 18 19 19 18 19 20 20 20 21
8 9 8 6 5 4 5 5 3 5 10 12 15 14 13 12 11 9 8 7 7 6 5 4 5 5 6 7 9 10 10 10 11 11 13 14 14 15 15 16 17 17 18 19 19 19 18 17 18
9 8 6 6 6 5 3 6 9 8 12 12 13 12 13 11 10 10 9 7 7 7 5 4 2 4 6 7 8 9 9 10 10 10 12 13 15 16 16 15 15 16 19 20 19 18 16 15 15
7 5 6 9 8 6 4 7 8 14 14 13 12 12 12 11 11 10 10 8 7 6 5 3 2 4 5 7 8 9 9 9 9 9 10 12 14 15 15 14 14 18 19 17 15 10 7 9 10
7 7 4 9 9 8 7 6 8 13 14 13 12 12 12 11 11 10 10 9 8 6 5 3 2 2 4 6 8 9 9 9 9 9 9 11 13 14 15 14 15 18 16 14 14 8 8 10 10
4 6 6 4 11 9 8 9 9 13 14 13 13 12 13 13 13 11 11 10 9 7 5 3 2 1 3 5 7 7 7 9 9 8 9 11 12 14 15 14 15 16 12 8 7 9 8 9 10
7 7 8 1 8 7 11 13 11 16 13 13 13 13 13 13 12 12 11 11 10 8 6 4 2 1 2 2 3 4 4 4 7 7 9 11 12 14 14 13 13 13 8 7 8 9 10 9 9
6 8 8 4 6 5 8 12 8 17 19 15 14 13 13 12 12 13 12 11 10 9 7 4 3 1 1 1 2 3 4 4 8 7 9 11 13 14 13 12 11 12 8 8 9 9 8 10 9
8 5 5 5 3 8 5 6 4 7 10 12 12 11 12 14 14 14 14 12 10 9 8 5 3 2 1 1 3 4 3 4 4 4 5 11 14 14 13 13 13 12 9 8 9 9 10 11 10
4 6 4 5 6 3 5 4 6 7 8 11 12 13 12 12 12 14 15 13 11 9 8 6 4 3 2 1 2 4 4 5 5 4 5 11 14 14 14 14 13 13 12 8 9 9 9 11 12
4 3 4 6 6 6 6 5 4 7 8 12 14 14 13 11 11 13 14 13 11 10 9 6 5 4 3 2 3 4 5 4 5 5 6 6 10 13 14 14 13 13 12 10 10 9 10 9 12
6 6 7 4 4 5 5 5 3 7 8 9 11 12 12 11 10 11 12 12 10 10 9 7 6 5 4 4 4 4 5 6 7 7 6 6 5 9 12 14 13 14 13 11 11 10 11 11 12
5 5 2 3 4 3 2 3 5 8 8 8 9 9 9 10 10 11 12 12 11 11 10 8 7 6 5 4 4 4 5 6 6 7 6 7 6 6 7 12 12 13 14 15 15 10 11 11 13
3 3 3 3 4 3 4 6 4 8 7 6 5 5 6 8 9 11 12 12 12 12 10 9 8 6 5 5 5 5 5 4 4 6 6 7 6 6 11 13 14 15 16 17 14 9 10 10 12
4 1 2 3 6 5 6 6 4 2 6 7 8 8 9 9 10 11 11 12 11 12 11 10 8 7 6 5 5 5 5 5 6 6 6 5 6 10 12 13 13 14 15 14 11 8 10 10 10
4 5 2 4 3 5 8 6 6 9 11 11 11 11 11 11 11 11 11 11 11 11 10 9 8 7 6 5 5 5 5 6 5 6 8 7 8 10 10 10 10 11 12 12 8 9 10 11 10
5 4 4 4 3 3 5 7 1 7 8 10 11 11 12 12 12 12 11 11 10 10 10 9 8 7 6 6 5 5 6 6 6 7 7 7 7 9 8 8 8 9 9 8 9 9 11 11 11
0 4 4 3 4 4 4 8 2 5 6 7 8 8 9 11 11 11 11 11 10 10 10 9 9 8 7 6 5 5 6 6 7 7 7 7 7 9 9 9 9 10 10 9 9 10 11 10 11
Wind_Direction
264 243 236 255 247 112 85 85 102 106 76 59 54 67 73 49 49 113 110 56 51 47 39 24 22 24 24 24 24 24 23 22 21 20 18 17 16 15 14 13 11 9 7 5 4 1 359 357 355
267 247 252 238 260 129 101 115 98 83 105 109 78 84 85 81 88 102 101 67 64 57 47 27 26 27 26 25 25 24 22 21 20 18 16 14 13 12 11 10 8 7 5 3 1 359 357 355 352
267 260 254 249 39 41 111 103 102 104 118 106 70 41 63 93 99 92 100 89 76 66 58 34 29 29 28 27 25 23 21 19 17 16 14 12 10 9 8 7 5 3 1 360 358 355 353 351 349
280 252 237 53 71 49 101 113 122 123 98 99 111 90 68 47 81 107 109 82 73 64 60 43 32 31 29 27 24 22 19 17 15 13 11 8 6 5 5 3 2 360 357 356 354 352 350 348 346
238 258 182 92 81 82 98 121 145 136 125 128 113 103 98 88 99 109 98 80 73 65 56 47 35 30 28 25 22 20 17 15 12 10 8 5 3 1 1 0 358 356 354 353 351 349 348 346 343
262 267 244 115 111 106 112 138 147 110 110 114 114 114 120 130 124 119 112 92 79 68 52 43 33 26 24 23 19 16 14 11 9 7 5 2 360 358 357 357 355 353 351 350 348 346 345 343 341
308 329 49 104 129 142 136 150 140 125 135 143 131 113 134 151 135 138 121 102 84 69 55 44 39 22 14 14 15 11 10 8 5 5 3 360 358 356 354 354 350 349 348 347 345 344 343 341 340
314 267 108 124 150 138 128 132 66 107 102 78 103 144 158 153 143 140 121 113 106 84 62 40 37 24 12 4 6 6 5 4 2 2 360 358 355 352 349 349 346 346 346 344 343 344 341 341 340
284 248 105 84 137 127 135 131 74 52 99 105 51 41 128 135 144 147 159 154 117 86 68 48 35 23 10 2 5 1 359 359 359 358 356 354 350 347 345 344 343 344 343 342 342 342 341 341 339
356 37 60 27 35 128 150 143 139 147 140 141 106 93 118 136 154 175 175 134 103 83 64 54 37 24 13 3 358 355 352 354 353 357 354 352 350 344 346 344 341 342 340 341 340 339 340 337 333
37 67 89 47 45 120 144 135 157 172 183 180 159 145 146 156 171 178 151 119 104 95 72 57 44 33 15 359 352 343 345 351 348 354 351 354 350 344 345 343 338 337 337 339 336 336 332 331 330
79 66 87 85 68 121 143 144 178 213 63 131 151 152 159 171 178 173 149 126 119 107 92 64 43 37 15 356 338 336 347 348 343 350 351 355 347 344 344 338 333 334 333 333 335 331 326 327 326
99 104 86 98 111 122 137 169 197 202 110 105 133 151 168 179 176 161 137 135 129 116 102 81 48 30 6 347 339 343 342 341 338 347 351 352 349 344 340 333 329 329 330 334 332 325 323 325 323
109 119 122 131 122 135 180 187 212 195 130 135 148 164 176 183 172 156 155 161 139 119 104 79 50 15 357 352 346 334 333 334 342 346 347 350 354 345 337 329 326 326 332 331 325 321 322 320 320
132 130 147 165 170 162 216 226 211 164 144 155 167 176 183 185 177 170 168 161 135 122 109 96 61 9 1 353 339 328 325 337 338 343 344 353 355 342 337 326 323 326 330 326 323 318 319 320 321
182 184 192 180 177 140 203 264 188 147 159 172 181 185 189 191 183 178 165 152 134 133 124 104 36 359 0 346 329 322 326 336 336 344 344 353 346 338 334 325 321 324 327 323 318 317 323 318 315
204 235 201 156 183 156 208 261 128 150 172 183 190 194 192 194 192 184 164 153 146 144 136 140 118 345 354 337 330 329 332 336 337 339 341 341 337 335 333 322 318 324 323 317 318 326 317 314 313
344 324 337 162 177 185 214 241 174 175 187 193 196 201 198 201 198 186 165 156 150 147 149 153 140 40 358 349 340 330 332 331 323 325 328 332 332 332 328 317 320 322 316 312 313 310 309 307 308
324 315 300 348 147 201 239 250 214 181 194 203 203 205 206 205 193 179 165 157 155 159 166 159 151 73 23 14 339 324 319 307 307 311 322 329 327 325 319 315 317 317 310 307 305 308 308 306 306
285 288 297 95 153 218 270 272 244 179 194 203 208 208 209 202 189 178 168 166 169 170 166 161 158 124 38 44 304 279 281 286 295 311 330 324 318 315 315 315 313 309 305 303 304 306 303 308 312
280 281 335 340 274 223 270 280 153 152 185 201 218 223 213 203 194 181 176 175 173 171 161 170 164 191 202 330 291 302 299 299 316 331 319 312 311 312 311 308 305 303 303 299 300 299 304 309 304
306 49 355 306 303 270 192 280 187 164 190 207 215 222 225 213 194 182 178 178 174 163 147 159 181 203 207 249 278 300 300 303 305 303 292 305 312 313 311 306 304 303 299 293 299 310 301 301 304
321 12 276 277 271 279 219 238 199 161 206 216 216 218 218 212 193 180 175 174 165 151 151 167 189 208 206 227 261 275 284 290 294 297 297 305 310 309 307 306 307 302 298 293 294 297 295 297 297
298 278 235 246 254 257 186 210 236 193 191 181 192 201 203 197 185 169 161 157 153 149 156 173 196 211 207 220 251 265 281 291 299 303 305 304 297 301 303 309 309 303 299 296 294 293 295 295 296
241 288 266 225 219 217 94 236 247 150 143 159 173 179 182 178 171 162 158 161 161 161 168 181 198 213 210 220 245 261 270 277 284 293 297 298 296 296 295 309 304 301 299 299 298 296 299 298 300
297 298 332 304 309 329 207 233 223 146 132 126 141 161 172 174 172 169 167 167 168 169 174 186 198 208 211 221 243 253 264 268 270 279 284 287 288 286 295 302 301 300 301 303 302 300 302 304 305
289 207 51 306 281 269 250 209 126 145 175 188 197 201 203 193 180 173 170 169 170 173 180 187 193 205 211 221 240 250 261 269 271 276 277 275 279 293 299 300 297 299 300 299 302 301 303 306 307
285 332 281 248 288 293 287 273 215 199 215 208 209 209 206 194 183 178 175 174 173 173 176 181 192 204 210 220 236 252 255 260 266 271 275 276 282 291 293 293 294 296 299 300 301 302 305 308 309
185 213 229 269 289 259 292 278 97 160 176 192 207 207 199 190 186 182 178 173 168 167 173 184 195 201 210 219 231 253 261 264 268 270 273 277 285 290 289 291 292 294 296 299 304 306 308 308 309
280 245 213 232 249 223 259 272 188 126 151 187 209 200 187 183 181 178 173 169 170 175 180 189 194 199 207 213 227 248 260 265 269 273 278 286 286 289 289 290 291 294 299 299 304 309 310 307 308
Height
1544 1544 1546 1548 1549 1553 1565 1569 1571 1578 1583 1588 1588 1589 1595 1601 1605 1616 1617 1615 1614 1613 1611 1609 1607 1604 1602 1599 1597 1594 1591 1588 1586 1583 1580 1578 1575 1573 1570 1567 1565 1562 1560 1557 1555 1552 1550 1547 1545
1544 1545 1548 1548 1550 1561 1572 1570 1575 1580 1586 1589 1590 1593 1597 1605 1608 1612 1613 1614 1613 1611 1610 1608 1606 1603 1601 1599 1596 1594 1591 1588 1585 1583 1580 1577 1575 1572 1569 1567 1564 1561 1559 1556 1553 1551 1548 1546 1543
1545 1546 1548 1546 1555 1563 1571 1574 1580 1585 1588 1590 1593 1596 1600 1607 1609 1610 1612 1612 1612 1610 1608 1607 1605 1603 1600 1598 1595 1593 1590 1588 1585 1582 1579 1577 1574 1572 1569 1566 1563 1560 1557 1555 1552 1549 1547 1544 1541
1546 1547 1547 1550 1564 1566 1568 1576 1581 1586 1589 1590 1593 1599 1603 1607 1607 1608 1610 1611 1610 1609 1607 1606 1604 1602 1600 1597 1595 1592 1590 1587 1584 1582 1579 1576 1574 1571 1568 1565 1562 1559 1556 1553 1550 1547 1544 1542 1539
1547 1546 1547 1560 1568 1570 1573 1578 1581 1584 1588 1591 1593 1599 1605 1607 1606 1607 1608 1609 1608 1608 1606 1605 1603 1601 1599 1596 1594 1591 1588 1586 1583 1581 1578 1575 1573 1570 1567 1564 1561 1558 1555 1552 1548 1545 1542 1539 1536
1548 1544 1550 1564 1571 1574 1577 1579 1580 1584 1588 1591 1593 1598 1604 1606 1606 1607 1607 1608 1607 1606 1605 1604 1602 1600 1598 1595 1593 1590 1588 1585 1583 1580 1577 1574 1572 1569 1566 1563 1560 1556 1553 1550 1546 1543 1540 1536 1533
1549 1546 1551 1562 1573 1575 1578 1580 1581 1584 1588 1591 1593 1597 1603 1605 1605 1606 1606 1606 1606 1605 1604 1603 1601 1599 1597 1595 1592 1589 1587 1584 1582 1579 1576 1573 1571 1568 1565 1561 1558 1555 1551 1548 1544 1541 1537 1533 1530
1548 1548 1552 1559 1569 1573 1577 1580 1582 1584 1587 1591 1593 1595 1598 1601 1602 1604 1605 1605 1604 1604 1603 1601 1600 1598 1595 1593 1591 1588 1586 1583 1580 1578 1575 1572 1569 1566 1562 1559 1556 1552 1549 1545 1542 1538 1534 1530 1527
1549 1550 1556 1558 1563 1571 1577 1581 1583 1585 1587 1590 1592 1592 1591 1596 1600 1602 1604 1604 1604 1602 1601 1600 1598 1596 1594 1592 1590 1587 1584 1581 1579 1575 1572 1569 1566 1562 1559 1556 1553 1550 1546 1542 1539 1535 1531 1527 1523
1551 1555 1563 1564 1563 1568 1575 1579 1583 1585 1588 1591 1592 1593 1593 1595 1598 1601 1603 1603 1602 1601 1599 1598 1596 1594 1592 1590 1588 1585 1582 1579 1576 1573 1570 1566 1563 1560 1557 1553 1550 1546 1542 1539 1535 1531 1527 1522 1518
1556 1563 1565 1567 1567 1569 1575 1578 1582 1583 1586 1586 1588 1590 1592 1594 1597 1599 1601 1601 1600 1599 1598 1596 1594 1592 1590 1588 1585 1582 1579 1577 1574 1571 1567 1564 1561 1557 1554 1550 1546 1542 1538 1534 1530 1526 1522 1518 1515
1562 1566 1567 1570 1570 1572 1575 1578 1581 1581 1582 1582 1583 1586 1590 1593 1595 1597 1598 1598 1597 1596 1595 1594 1592 1591 1588 1586 1582 1580 1577 1574 1571 1568 1565 1561 1558 1554 1550 1546 1542 1538 1534 1531 1527 1522 1518 1515 1511
1564 1569 1570 1572 1573 1574 1576 1578 1579 1580 1580 1581 1583 1585 1588 1591 1593 1595 1596 1595 1595 1594 1593 1592 1590 1588 1586 1583 1580 1578 1575 1572 1569 1566 1562 1559 1555 1551 1547 1543 1539 1535 1531 1528 1523 1519 1515 1511 1507
1565 1569 1572 1573 1574 1576 1577 1577 1579 1577 1578 1580 1582 1584 1586 1589 1591 1592 1592 1593 1593 1592 1591 1590 1588 1586 1584 1581 1578 1575 1572 1570 1567 1564 1560 1556 1552 1548 1544 1539 1536 1532 1529 1525 1520 1516 1512 1507 1503
1566 1569 1573 1573 1574 1575 1577 1576 1573 1574 1576 1579 1581 1583 1585 1587 1589 1589 1589 1590 1590 1589 1588 1587 1586 1584 1581 1578 1575 1572 1570 1567 1564 1561 1558 1554 1550 1545 1541 1537 1533 1529 1526 1521 1517 1513 1509 1505 1500
1565 1566 1569 1569 1571 1573 1579 1574 1564 1569 1573 1577 1579 1581 1583 1584 1585 1586 1587 1587 1586 1586 1585 1584 1583 1581 1578 1576 1573 1570 1568 1565 1562 1559 1555 1551 1547 1543 1538 1534 1530 1526 1522 1518 1514 1510 1506 1501 1496
1563 1562 1557 1567 1567 1570 1574 1570 1568 1567 1570 1574 1576 1578 1580 1581 1582 1583 1583 1583 1583 1583 1582 1581 1580 1578 1576 1573 1570 1568 1565 1562 1559 1556 1552 1548 1544 1540 1536 1531 1527 1524 1519 1515 1512 1507 1503 1497 1492
1560 1555 1552 1557 1564 1566 1569 1566 1565 1566 1568 1570 1572 1574 1576 1576 1577 1579 1579 1579 1579 1579 1579 1578 1576 1575 1572 1570 1568 1565 1562 1559 1556 1553 1549 1545 1541 1537 1533 1528 1524 1520 1516 1512 1508 1504 1500 1495 1490
1557 1557 1557 1555 1560 1563 1562 1559 1557 1561 1564 1566 1568 1569 1571 1572 1574 1575 1575 1574 1574 1574 1575 1574 1573 1571 1569 1567 1564 1561 1559 1556 1553 1550 1546 1542 1538 1534 1530 1525 1521 1517 1513 1509 1505 1501 1496 1491 1486
1558 1558 1556 1556 1559 1560 1557 1553 1548 1553 1556 1559 1562 1564 1566 1568 1570 1570 1570 1569 1569 1570 1570 1570 1569 1567 1565 1563 1561 1558 1555 1552 1550 1547 1543 1540 1535 1531 1527 1523 1518 1514 1510 1506 1502 1498 1493 1488 1484
1556 1556 1557 1559 1555 1555 1559 1552 1547 1549 1554 1557 1558 1559 1560 1562 1563 1564 1563 1564 1565 1566 1566 1566 1565 1564 1562 1560 1557 1555 1552 1549 1547 1543 1540 1536 1532 1528 1524 1520 1515 1511 1507 1503 1499 1495 1490 1484 1479
1557 1558 1558 1559 1563 1557 1556 1561 1552 1550 1552 1553 1553 1554 1554 1556 1557 1558 1558 1558 1559 1560 1561 1561 1561 1560 1558 1556 1554 1551 1548 1546 1543 1539 1536 1532 1529 1525 1521 1517 1512 1508 1504 1500 1495 1491 1487 1482 1475
1556 1557 1559 1559 1562 1562 1552 1558 1547 1546 1550 1547 1546 1547 1548 1550 1552 1552 1552 1553 1555 1555 1556 1557 1557 1556 1554 1552 1550 1548 1545 1542 1539 1536 1532 1529 1525 1521 1517 1513 1509 1504 1500 1496 1492 1487 1482 1477 1472
1557 1556 1556 1559 1561 1564 1545 1550 1544 1543 1538 1537 1539 1540 1542 1544 1547 1548 1548 1549 1550 1550 1551 1553 1553 1552 1550 1549 1547 1544 1542 1539 1535 1532 1528 1525 1521 1517 1514 1510 1505 1501 1496 1492 1487 1483 1478 1472 1467
1557 1559 1561 1562 1568 1554 1544 1546 1541 1532 1530 1532 1535 1536 1538 1539 1541 1542 1543 1543 1544 1545 1546 1548 1548 1547 1546 1545 1543 1541 1538 1535 1532 1528 1525 1521 1517 1513 1510 1506 1501 1497 1492 1488 1483 1478 1473 1467 1462
1553 1557 1566 1569 1560 1550 1546 1547 1531 1527 1528 1529 1532 1533 1535 1536 1536 1537 1537 1538 1539 1540 1542 1543 1543 1543 1542 1541 1539 1537 1534 1531 1528 1525 1521 1517 1513 1509 1506 1502 1497 1493 1489 1484 1479 1474 1469 1463 1458
1554 1553 1556 1562 1556 1556 1543 1529 1532 1528 1529 1529 1529 1530 1530 1531 1532 1532 1533 1533 1534 1535 1537 1538 1539 1538 1538 1536 1535 1533 1530 1528 1524 1521 1518 1514 1510 1506 1502 1498 1493 1489 1485 1480 1475 1470 1465 1459 1454
1557 1556 1558 1562 1564 1565 1543 1528 1528 1529 1525 1525 1525 1524 1525 1526 1526 1527 1528 1528 1529 1531 1532 1533 1534 1534 1533 1532 1530 1528 1526 1524 1520 1517 1514 1510 1506 1502 1498 1494 1489 1485 1481 1476 1472 1467 1461 1456 1450
1558 1557 1556 1556 1555 1566 1561 1541 1513 1514 1514 1516 1517 1518 1519 1519 1520 1521 1522 1523 1525 1526 1527 1528 1529 1529 1529 1527 1526 1524 1522 1519 1516 1513 1510 1506 1502 1498 1494 1490 1486 1481 1477 1473 1468 1463 1458 1453 1447
1547 1547 1551 1561 1556 1554 1559 1542 1510 1510 1511 1512 1513 1514 1514 1514 1515 1516 1517 1518 1519 1521 1522 1523 1524 1524 1524 1523 1522 1520 1518 1515 1512 1509 1506 1502 1499 1495 1490 1486 1482 1477 1473 1469 1464 1459 1455 1450 1444